Wind_Speed
44 44 43 42 42 41 40 39 38 37 36 35 34 32 30 28 26 24 23 21 23 24 22 22 22 20 18 18 19 19 20 20 19 20 20 19 19 19 18 16 15 14 15 16 18 20 22 23 24 25 27 28 29 29 29 28 27 27 28 29 30 31 30 29 27 27 24 22 21 23 22 20 19 20 19 18 17 16 17 16 15 15 14 13 11 11 12 12
46 45 44 43 43 42 41 40 38 37 36 36 34 33 31 29 26 25 23 21 23 24 22 22 22 21 19 18 19 19 19 19 18 19 19 18 18 16 15 12 10 11 12 14 16 18 20 22 23 24 25 27 28 28 29 29 28 28 29 30 32 31 30 28 27 26 23 19 20 22 22 20 18 18 19 19 19 18 19 17 16 17 16 15 13 12 13 15
47 46 46 45 44 43 42 41 39 38 37 36 35 33 31 29 27 25 24 22 23 23 22 22 22 21 19 18 19 18 18 19 18 18 18 17 15 13 10 8 7 9 10 13 15 17 18 20 22 23 24 25 27 28 28 29 29 30 31 32 32 31 30 29 27 26 24 21 22 23 22 21 20 19 18 19 20 19 18 17 17 18 17 14 13 11 13 16
48 48 47 46 45 44 43 42 41 39 38 37 35 34 32 30 28 25 24 22 23 23 22 21 21 21 19 18 18 17 17 17 17 17 16 15 13 9 6 6 7 9 11 12 13 15 16 18 20 22 23 23 25 27 28 29 30 31 32 33 32 29 30 29 28 27 26 24 24 25 22 21 21 20 19 20 21 20 19 18 18 17 15 12 11 11 12 15
46 47 47 47 47 46 45 44 42 41 39 38 37 35 33 30 28 26 25 23 23 23 22 21 21 21 19 17 17 16 16 16 16 16 14 13 10 5 5 6 8 9 11 12 13 14 15 17 17 18 21 22 23 25 27 29 30 31 32 32 31 29 30 30 29 28 26 25 26 26 23 21 21 19 19 22 23 21 21 21 19 16 14 12 12 13 12 14
42 44 45 46 47 47 46 45 44 42 41 40 38 36 34 32 29 27 25 24 23 23 22 21 21 21 19 18 17 16 15 15 15 15 13 11 7 4 6 7 8 9 11 13 13 14 16 17 17 16 18 21 23 24 27 29 31 32 32 32 31 30 30 29 29 28 27 25 26 25 23 22 21 19 20 23 23 21 21 21 19 16 15 14 15 16 16 16
42 42 42 43 44 45 45 45 45 44 42 41 39 37 36 33 30 28 26 25 24 24 22 22 21 21 19 18 17 15 13 14 14 14 12 9 5 5 7 8 9 10 13 14 13 13 16 17 16 17 19 20 23 25 27 29 31 32 31 30 30 30 29 28 28 29 27 24 23 24 24 24 22 21 23 24 23 22 21 21 20 18 18 18 19 20 19 20
42 42 42 41 41 42 43 44 44 44 43 42 41 39 37 35 32 29 28 26 25 25 23 22 21 21 19 18 16 14 12 12 13 12 10 8 5 6 8 8 10 12 14 15 14 13 15 17 16 17 20 21 23 26 28 30 32 32 31 29 28 30 29 28 29 29 27 23 23 23 24 24 23 23 25 25 24 23 22 21 20 20 21 23 23 22 21 21
43 42 42 42 41 40 40 41 42 43 43 43 42 40 38 36 33 31 29 27 26 26 23 23 22 21 20 18 16 14 12 11 12 11 10 8 6 6 8 9 11 14 15 14 15 14 15 18 17 17 18 19 22 25 27 30 33 34 33 32 30 30 30 29 29 28 26 24 24 24 24 24 25 26 27 27 25 22 22 21 21 21 22 23 24 24 23 22
43 43 42 42 42 41 39 39 40 41 42 42 41 41 39 37 35 32 30 28 27 26 24 23 22 21 20 18 16 14 11 10 10 11 9 8 6 7 9 10 12 15 15 14 15 14 15 18 20 20 19 19 21 24 28 31 34 36 35 35 33 31 30 29 29 28 27 26 26 26 26 27 27 27 27 27 24 22 22 22 22 22 23 24 24 25 24 23
44 43 43 42 42 42 40 39 39 40 40 40 40 41 40 38 36 34 32 29 28 27 25 24 23 22 21 19 17 14 11 9 9 9 8 7 7 8 10 12 13 16 16 16 17 16 15 18 21 22 21 20 22 23 27 31 33 36 37 37 36 34 32 30 29 29 29 29 29 29 28 28 28 26 26 26 24 23 23 24 23 23 24 25 25 26 26 25
46 45 44 43 42 42 41 40 39 39 38 38 39 39 39 38 37 35 33 31 29 27 26 24 23 22 21 19 17 14 11 8 8 8 8 7 8 9 11 12 14 17 18 17 18 17 16 17 19 21 21 20 22 23 26 29 31 33 35 37 38 37 35 32 31 30 31 32 32 31 30 29 29 28 27 27 26 26 25 25 25 24 25 25 24 24 25 26
46 46 45 44 43 42 42 41 40 39 38 37 37 38 38 38 38 36 34 32 30 28 26 25 24 23 22 20 17 15 12 9 7 7 8 7 8 10 11 13 14 16 18 19 18 18 18 17 17 20 21 21 23 25 26 28 29 29 31 34 37 38 37 35 34 33 31 32 34 34 33 32 31 30 29 28 28 27 26 26 26 25 25 24 24 23 24 25
47 46 46 45 44 43 42 42 41 39 38 37 37 37 37 38 38 36 34 33 31 29 27 26 24 23 23 21 18 15 12 9 7 6 7 8 8 10 12 13 15 16 17 18 18 18 18 18 18 20 21 22 23 24 26 28 29 28 29 32 36 37 37 36 37 36 33 32 32 32 32 32 31 30 28 27 26 26 26 25 25 25 25 24 23 23 23 23
47 46 46 45 45 44 43 42 41 40 39 37 36 36 36 36 37 37 35 33 32 30 28 27 25 24 23 22 19 16 13 10 8 6 5 7 8 9 12 13 15 16 16 18 18 17 17 18 19 20 21 22 24 24 25 27 28 28 28 30 34 36 35 35 36 37 36 34 33 32 30 30 30 29 28 27 27 26 25 24 23 23 23 23 23 22 22 23
47 46 46 46 45 44 43 42 41 41 39 38 37 36 35 35 36 37 36 34 33 31 30 28 26 25 24 23 20 18 14 11 8 7 5 6 8 9 11 13 15 16 16 17 18 18 17 17 18 20 20 21 23 24 24 25 26 27 27 29 32 36 36 35 35 36 36 36 35 34 32 30 29 28 28 28 28 28 27 26 24 22 22 23 23 24 24 24
48 47 46 45 45 45 44 43 42 41 40 39 38 36 35 34 35 36 36 35 34 33 31 29 27 26 25 23 21 19 16 13 10 8 6 6 8 9 10 12 14 16 17 17 17 17 17 17 18 19 21 22 23 24 24 24 25 27 27 28 29 33 36 36 35 35 35 35 35 35 33 31 30 29 29 29 29 28 27 27 26 25 24 25 26 27 27 27
49 48 46 45 45 45 44 43 43 42 41 39 38 37 35 34 35 36 37 36 35 34 33 30 28 27 26 24 22 20 17 14 11 9 8 6 7 9 10 11 12 14 14 15 16 16 15 16 18 20 22 23 23 23 24 23 24 26 26 26 27 29 31 33 33 33 33 33 33 32 32 30 29 29 29 29 28 28 27 27 27 28 29 29 30 31 31 31
49 49 47 46 45 45 44 43 43 42 41 40 39 37 35 34 35 36 38 38 38 37 35 32 30 29 27 24 23 21 19 16 13 11 9 8 8 9 10 10 11 12 12 12 14 15 16 15 16 19 22 23 24 23 23 22 21 22 23 24 24 26 27 28 29 28 28 27 27 28 28 28 27 27 27 28 28 27 27 27 28 29 30 31 32 32 33 33
50 50 48 46 45 44 44 44 43 42 41 40 39 37 36 35 35 37 39 41 39 37 35 33 31 30 28 26 25 22 20 18 15 12 10 9 8 9 10 10 10 11 11 11 12 14 16 17 15 15 17 20 23 23 22 20 18 18 19 20 21 23 24 25 25 24 24 22 21 22 24 25 25 24 25 26 26 26 26 27 28 29 29 30 31 32 32 33
51 50 49 47 45 44 44 44 43 42 41 41 39 38 37 36 36 37 39 40 38 37 36 34 34 32 29 27 26 24 22 19 16 14 12 11 10 9 10 10 10 10 11 12 13 12 13 15 15 13 13 15 19 21 20 18 17 17 18 20 20 21 21 22 22 21 21 21 20 19 21 22 22 22 22 24 25 25 25 26 28 29 29 30 31 31 32 32
51 51 50 48 46 45 44 44 43 43 41 40 39 38 37 36 36 37 38 38 38 39 38 36 35 34 31 29 27 25 24 21 19 16 13 12 11 11 11 11 11 10 10 11 12 12 11 13 14 13 12 12 14 17 18 17 16 17 17 18 19 19 19 20 20 20 21 22 20 19 19 21 23 23 23 23 24 25 26 26 28 29 30 32 32 32 32 32
52 51 50 49 47 45 44 44 43 42 42 40 39 38 38 36 36 38 38 39 40 41 40 38 37 35 33 31 29 27 25 23 21 18 15 14 13 13 12 12 12 12 10 10 10 11 10 11 11 12 13 13 12 13 15 15 15 15 14 14 15 16 16 17 18 19 20 20 19 18 19 22 24 25 25 24 24 26 27 28 30 30 31 32 33 33 33 32
53 52 51 50 48 46 44 43 43 42 42 41 40 39 38 37 37 39 39 39 41 43 42 39 38 37 35 33 30 29 27 25 23 20 18 16 15 14 14 14 14 13 12 11 11 12 13 13 12 12 13 14 14 14 14 14 14 14 14 14 14 14 14 15 16 17 18 19 19 20 20 21 23 25 25 25 26 28 29 29 30 30 31 31 31 32 32 33
53 52 51 50 49 47 44 43 43 43 42 41 40 40 39 38 39 40 40 40 42 43 42 41 41 40 37 35 33 31 29 27 25 22 20 18 17 17 16 16 16 15 15 14 14 14 15 15 14 13 14 15 15 15 15 16 16 16 15 15 15 15 15 16 17 18 18 19 20 21 22 21 21 22 24 26 27 28 30 30 30 30 30 31 31 31 32 34
53 53 51 51 50 48 45 43 43 43 42 42 40 39 39 38 38 40 40 40 42 43 44 44 43 41 39 37 35 33 31 29 28 26 23 20 19 19 18 17 17 17 17 17 16 16 15 15 14 14 15 15 15 15 16 17 17 17 16 16 16 16 17 18 19 19 19 19 20 22 22 21 20 21 23 25 27 27 29 31 30 30 31 32 32 33 34 36
53 53 52 51 50 49 46 44 43 43 43 42 40 39 40 38 38 39 40 41 41 43 46 46 44 42 41 39 37 35 34 33 31 28 24 22 21 20 19 19 19 19 20 20 19 18 18 17 16 15 16 16 17 18 18 18 18 18 18 18 18 19 19 19 20 20 20 19 19 21 22 22 22 22 23 25 26 26 28 30 31 31 32 33 34 34 35 36
52 52 52 51 50 49 47 44 43 44 43 42 40 39 39 39 39 40 41 41 40 43 48 48 45 44 43 42 39 37 37 36 32 29 26 25 23 22 21 21 21 21 21 22 22 22 21 20 19 18 19 20 21 21 21 21 20 18 18 19 19 19 19 20 21 21 21 20 19 20 22 23 23 23 23 24 25 25 26 29 32 33 34 35 35 35 34 34
51 51 51 50 50 49 47 44 43 43 43 41 40 39 39 40 40 40 41 42 42 44 48 48 46 46 45 44 41 40 40 38 34 32 30 28 26 24 23 23 23 22 22 23 24 25 24 23 23 23 22 23 23 23 22 21 18 18 19 20 19 19 20 21 22 21 21 21 20 19 21 24 26 25 24 24 25 26 26 28 31 32 33 35 36 36 35 34
48 49 49 49 48 48 46 44 43 43 42 40 40 40 40 40 40 40 42 44 44 45 47 47 48 49 48 46 44 44 42 40 37 35 33 32 29 27 26 26 25 24 24 25 26 25 25 25 26 25 24 25 26 24 22 20 19 20 22 21 20 21 22 22 23 23 23 23 22 20 20 23 26 27 27 25 26 27 27 29 30 30 31 33 35 37 37 35
46 46 46 47 47 47 45 44 43 42 42 41 41 41 41 41 40 41 43 44 44 45 47 48 50 52 51 49 47 46 44 42 40 38 36 34 32 30 29 28 27 26 27 27 26 25 25 26 27 26 27 29 28 25 24 23 23 23 23 22 22 23 24 24 25 25 26 25 25 23 21 22 25 28 29 29 29 29 29 29 30 29 29 31 34 37 38 37
43 44 44 45 46 45 44 43 43 42 42 41 41 41 42 40 41 43 46 46 46 48 49 49 51 54 53 51 49 48 46 44 43 41 39 36 34 33 33 31 29 28 28 28 28 27 27 27 28 28 30 32 30 27 27 26 26 25 25 25 25 25 26 26 27 28 28 28 29 27 23 23 25 27 29 29 30 30 30 30 30 29 29 31 33 36 38 37
40 42 42 43 44 44 43 43 42 42 41 41 41 42 41 41 44 47 48 48 49 49 49 49 51 53 53 52 51 50 48 46 46 44 40 38 37 37 36 33 31 31 30 30 30 30 29 29 28 29 31 32 31 30 29 29 29 28 28 28 27 27 29 30 30 30 30 32 34 30 25 24 27 29 29 29 30 31 31 32 31 30 30 31 33 35 36 36
38 40 41 41 42 43 43 43 42 41 41 41 42 42 42 45 48 49 50 50 49 47 47 48 49 51 52 52 52 52 50 49 49 46 43 41 42 40 38 37 35 34 32 32 33 32 31 31 29 29 30 31 32 31 31 32 32 31 31 31 30 30 33 34 32 32 33 37 37 30 25 26 28 29 30 31 31 31 33 34 34 33 32 32 33 34 34 35
36 38 39 40 41 42 42 42 42 41 41 42 42 43 45 49 50 50 49 47 44 44 44 44 45 47 50 51 51 53 51 50 51 49 45 44 44 43 41 39 37 35 35 36 35 33 33 32 30 30 30 30 31 31 32 33 33 34 33 33 33 35 37 37 35 35 36 38 39 32 27 29 30 31 33 33 32 32 33 35 37 37 36 35 35 35 34 34
33 35 37 38 40 41 42 42 41 41 42 42 43 46 49 51 51 49 46 44 43 44 43 43 44 45 48 50 51 52 52 52 53 50 47 46 46 45 44 42 40 39 39 38 36 34 34 33 32 32 32 30 30 30 33 35 35 36 34 34 37 38 38 38 37 36 37 39 41 36 32 33 34 34 35 34 34 34 35 37 39 39 39 39 40 38 36 33
31 33 35 37 39 40 41 42 41 41 42 43 46 49 51 50 49 47 45 45 45 44 43 45 45 45 48 50 51 52 51 52 54 52 49 49 48 47 46 44 43 43 42 40 37 36 35 36 35 34 33 31 30 32 35 36 35 35 34 35 37 37 36 37 37 38 38 40 41 39 37 37 36 35 34 34 36 36 37 38 39 40 41 42 42 41 38 34
29 31 34 36 38 39 40 41 41 42 43 45 48 49 50 49 48 47 47 46 45 43 43 44 44 46 48 49 51 52 50 51 54 53 52 51 50 50 48 47 46 45 42 40 39 37 36 36 36 35 34 32 32 34 36 34 33 34 34 34 34 34 33 34 37 38 39 41 42 39 35 34 33 33 34 36 37 36 36 37 38 40 41 42 43 42 38 32
28 30 33 35 36 38 40 41 42 43 44 47 49 49 50 49 48 47 46 44 42 42 43 43 45 48 50 50 51 52 51 51 53 54 52 52 52 51 49 48 47 45 42 41 40 37 36 37 37 37 35 34 35 37 35 32 32 34 34 32 30 31 33 36 40 40 39 40 39 33 29 30 32 34 35 35 34 33 34 36 39 41 42 42 42 40 34 30
27 29 31 33 36 38 40 42 43 44 45 47 48 49 48 48 47 46 44 43 42 42 43 45 47 48 48 47 47 49 51 51 52 54 53 52 52 51 49 48 47 45 43 41 40 38 37 38 39 38 37 37 38 38 35 33 33 33 33 31 30 33 38 41 42 40 38 39 38 34 32 31 32 33 32 31 31 31 33 36 39 41 42 41 39 36 32 31
26 28 30 33 36 38 40 41 43 44 46 47 48 48 48 47 47 46 46 45 45 46 47 47 47 46 46 46 45 47 50 49 50 53 52 52 52 51 50 48 47 45 43 41 41 40 39 39 40 38 39 40 40 38 37 36 35 35 35 34 34 38 41 42 40 38 38 39 40 38 35 32 30 29 28 27 27 29 31 34 38 41 42 41 38 35 36 38
24 27 29 32 34 36 38 40 42 44 45 46 46 46 46 46 47 47 47 47 47 47 45 43 44 46 48 49 49 50 51 50 50 51 51 52 52 51 50 48 47 45 43 42 41 40 39 40 40 39 40 42 41 40 39 38 36 36 37 36 37 40 39 38 38 37 38 40 40 39 36 32 27 25 25 26 26 27 28 31 35 39 41 40 38 38 40 42
23 25 27 30 33 36 38 41 42 43 43 44 45 45 45 46 47 48 48 46 46 44 41 40 43 46 49 52 52 52 52 52 51 51 52 52 52 52 50 48 46 44 42 40 39 40 41 42 41 39 40 42 42 40 38 38 38 38 38 37 40 41 38 35 35 35 38 39 40 39 35 30 27 25 25 24 23 25 27 29 33 37 39 39 39 40 42 42
21 24 26 30 33 36 38 40 41 42 43 45 46 46 46 46 47 47 47 46 44 41 41 43 45 47 51 52 51 50 50 51 50 51 52 52 52 52 49 46 44 42 40 39 40 43 44 43 42 40 40 42 42 38 36 37 38 39 39 39 41 41 36 31 31 34 38 40 40 37 33 29 27 25 24 23 24 26 28 30 34 36 38 39 40 41 42 41
19 22 25 28 31 34 36 38 40 42 44 46 47 47 47 47 47 46 44 43 42 41 43 45 47 49 51 51 50 48 48 50 50 51 53 52 53 52 48 45 43 40 40 40 42 45 45 44 43 40 38 39 39 37 33 34 37 40 40 40 40 40 35 32 32 34 38 40 38 35 32 30 27 25 24 25 27 30 31 32 34 36 38 40 41 41 41 40
17 21 25 28 32 34 36 38 40 42 43 43 44 44 45 45 45 45 43 43 43 43 44 46 47 49 50 50 50 48 49 50 51 52 53 52 53 52 47 45 44 42 42 43 44 46 47 45 43 39 37 38 38 37 33 31 34 39 40 40 39 39 37 35 35 36 36 37 36 34 32 30 29 28 28 29 31 32 31 33 35 36 38 40 41 41 40 41
17 22 25 29 31 33 35 38 40 41 42 43 43 44 44 44 44 45 47 48 47 46 47 48 48 49 50 51 51 51 51 51 51 53 53 50 51 50 46 45 44 43 43 43 44 48 48 44 41 39 38 38 38 37 34 33 35 37 39 40 38 37 37 36 36 36 34 35 37 34 31 30 30 32 33 32 33 33 32 33 36 38 40 40 39 40 41 43
16 20 23 25 27 29 32 35 38 39 41 43 45 46 47 46 46 46 49 51 50 48 49 51 50 50 52 52 52 52 51 51 52 53 52 51 50 50 47 45 43 40 40 41 45 49 47 43 39 38 37 37 37 37 36 36 37 35 35 36 38 38 38 36 37 37 35 36 37 32 28 29 31 34 36 34 33 33 34 35 38 41 41 40 39 40 43 46
16 18 20 23 25 27 30 33 36 38 40 42 44 44 45 47 48 49 51 51 51 50 51 52 52 53 53 53 53 53 52 52 53 52 52 51 51 50 47 43 39 38 40 43 45 46 46 43 40 38 38 38 38 39 38 37 36 33 32 34 36 38 38 37 37 38 39 39 36 31 28 30 32 35 36 36 36 36 37 39 40 40 38 37 38 41 44 46
17 18 19 22 25 27 30 33 36 38 40 42 42 43 44 45 46 47 50 52 52 53 53 53 53 52 53 53 53 54 54 53 52 51 51 51 50 48 45 41 39 40 43 44 43 43 43 43 41 39 39 39 39 39 38 36 34 32 33 34 34 36 37 37 36 37 40 41 37 33 32 32 32 33 35 36 37 38 40 42 40 37 35 37 39 41 43 44
17 18 19 21 24 27 29 32 35 37 39 40 41 42 42 43 43 44 48 50 51 51 52 52 51 50 51 52 52 53 52 51 51 51 51 50 48 45 43 42 43 44 43 43 42 42 43 42 40 39 39 39 40 38 37 35 33 33 34 33 32 34 36 38 38 37 38 40 39 37 36 35 34 34 35 36 37 39 41 41 38 35 36 38 39 39 39 41
18 19 19 20 22 24 27 30 33 35 37 39 41 42 42 42 44 46 48 49 50 50 50 50 49 49 50 51 50 50 48 48 49 49 49 49 45 42 41 43 45 45 42 43 44 44 42 41 40 39 39 40 40 38 36 34 33 34 34 32 32 34 36 38 39 38 37 38 40 40 39 38 36 36 37 38 39 41 42 40 37 37 38 39 38 38 38 39
Wind_Direction
260 260 261 261 262 262 263 263 264 265 267 268 269 271 272 273 276 278 279 283 285 286 290 293 296 299 303 309 311 314 315 314 315 313 313 313 311 307 301 292 276 256 236 222 215 212 211 209 208 208 207 206 206 206 205 204 201 198 198 197 198 201 203 202 200 201 210 218 220 223 228 231 237 240 242 247 248 250 258 269 271 270 277 275 280 295 298 315
259 260 260 261 262 262 263 263 264 264 266 267 268 269 270 271 273 275 277 280 282 284 287 291 295 298 302 308 310 314 316 316 317 317 317 317 316 311 303 288 263 238 219 207 204 204 204 203 202 202 204 204 202 201 202 201 198 195 195 197 197 199 202 204 202 203 209 218 223 226 228 229 233 240 244 246 247 253 262 271 273 270 269 269 275 284 291 302
258 259 259 260 261 262 262 263 263 264 264 266 267 268 269 270 271 272 274 278 281 282 285 289 293 297 301 307 309 314 317 316 319 319 320 321 319 315 300 274 238 213 200 195 194 197 198 199 200 198 198 201 200 198 199 199 197 194 194 197 197 197 202 206 205 203 206 215 225 227 229 230 232 238 243 244 246 253 261 266 269 268 265 264 270 277 288 294
258 258 259 259 260 260 261 262 262 263 263 264 266 267 268 268 269 270 272 276 278 279 283 287 292 295 300 306 308 312 316 317 320 320 322 323 322 313 283 245 213 196 190 188 189 192 194 196 198 197 193 197 201 197 195 196 196 193 194 198 197 196 203 208 208 205 205 212 223 229 233 236 236 237 243 247 251 257 260 262 264 266 266 263 263 268 281 291
259 259 258 258 259 259 260 260 261 262 262 263 264 265 266 267 268 268 270 274 276 277 281 285 289 294 298 304 306 311 316 319 321 322 324 325 321 301 249 225 207 194 188 182 181 183 184 185 188 192 190 192 199 197 192 192 194 193 194 198 197 197 204 209 211 210 210 215 223 231 235 237 238 242 249 254 257 260 261 261 260 263 268 262 256 264 277 284
260 260 259 259 258 259 259 259 260 260 261 262 262 263 264 265 266 267 268 271 274 275 279 283 287 291 296 301 304 309 316 319 322 324 325 324 315 267 230 221 208 195 183 173 171 174 176 177 176 184 191 191 195 196 192 190 192 194 195 198 199 199 205 211 215 217 218 221 225 228 230 230 233 240 249 253 255 255 255 256 257 260 266 263 259 266 274 277
261 261 260 260 259 259 259 258 258 259 259 260 261 261 262 263 264 265 267 269 271 273 276 280 284 289 293 298 301 306 314 319 321 323 324 319 299 242 224 219 209 193 177 169 170 176 181 184 182 186 193 193 193 192 191 190 193 196 196 198 202 204 206 211 218 221 222 224 225 224 224 226 230 237 244 248 248 246 246 250 255 259 263 267 271 272 274 276
260 260 261 260 260 259 259 259 258 258 258 258 259 260 260 261 262 262 264 266 269 270 273 277 281 285 290 294 298 303 311 318 320 323 322 311 283 231 220 216 209 191 178 176 177 180 187 195 199 198 197 195 192 191 191 191 193 195 194 195 204 210 208 210 218 223 223 224 226 226 227 230 234 238 242 244 243 244 247 253 259 264 267 272 276 277 277 277
259 259 260 260 260 259 259 259 258 258 257 257 257 258 258 259 260 260 261 263 266 268 270 274 277 282 286 290 294 299 308 316 319 321 320 306 272 226 217 213 207 195 187 188 186 184 188 197 208 212 207 201 197 195 194 192 193 193 192 194 203 213 213 211 216 222 223 224 228 231 231 232 234 235 238 240 243 248 254 260 266 270 272 273 276 278 278 277
258 258 258 259 259 259 258 258 258 258 257 256 255 256 256 257 258 258 259 260 262 265 267 270 274 278 282 286 290 294 303 312 316 319 317 301 267 227 216 211 206 199 197 198 195 196 199 202 210 215 216 212 205 200 196 195 195 194 193 195 203 211 214 213 215 220 222 224 228 231 232 230 230 231 233 236 243 251 258 265 271 273 275 276 277 278 278 277
256 256 257 257 258 258 258 257 257 257 257 256 255 254 254 255 256 256 257 258 259 262 264 267 271 274 277 281 285 289 295 305 312 315 313 296 265 232 216 212 207 202 202 204 203 208 215 212 213 214 216 215 211 205 199 197 198 199 198 199 203 208 211 211 213 219 223 226 228 230 230 227 226 229 235 241 251 262 268 272 274 278 282 281 279 277 277 275
255 255 255 256 256 257 257 256 256 256 257 256 255 253 252 252 253 254 255 255 256 258 261 264 267 270 274 277 281 284 288 297 307 310 307 292 263 238 219 213 210 205 204 206 208 214 219 217 217 217 216 215 214 212 207 202 201 204 206 207 207 208 209 210 212 218 224 227 229 230 231 229 228 234 244 253 263 272 275 275 277 283 288 286 282 277 276 275
255 255 254 255 255 255 256 256 255 255 255 255 254 253 251 250 251 251 252 253 253 255 257 259 263 266 270 274 276 279 282 288 300 304 301 290 262 239 225 216 212 207 205 205 209 216 220 221 222 220 217 215 214 214 212 208 207 210 215 215 213 212 213 212 214 220 226 227 227 230 233 236 240 247 256 264 270 276 279 279 280 284 285 285 284 280 279 278
254 254 254 254 254 254 254 255 254 254 254 254 253 252 251 249 248 249 250 251 251 252 253 255 259 262 266 269 272 273 276 280 288 295 294 286 266 239 228 221 214 209 207 207 210 217 223 227 224 218 217 216 215 216 215 214 216 221 223 222 219 218 218 219 221 227 232 232 229 231 236 243 250 259 267 271 274 278 281 281 280 280 279 280 282 282 281 282
253 253 253 253 253 253 253 253 253 253 253 252 252 251 250 248 246 246 246 248 249 249 250 252 254 257 261 265 267 269 270 272 276 282 282 279 268 243 228 223 217 211 208 209 213 219 226 229 222 215 216 217 217 219 220 220 223 226 228 226 224 222 223 225 227 232 237 239 238 239 243 250 256 263 269 272 274 277 278 278 279 278 275 276 278 278 278 278
253 252 252 252 252 252 252 252 252 252 251 251 251 250 248 247 245 244 244 245 246 247 247 248 250 253 256 260 263 265 265 265 267 269 272 269 263 247 231 224 219 213 209 209 213 219 222 223 220 216 215 217 218 219 222 225 227 229 231 230 228 227 227 230 233 236 240 244 246 247 249 254 259 264 268 271 274 275 274 273 275 275 273 273 273 273 272 272
253 252 251 251 251 251 251 251 251 250 250 249 249 249 247 245 243 242 241 241 242 244 244 244 246 248 251 255 258 260 260 260 261 260 262 261 254 246 234 226 221 215 212 210 213 218 220 219 220 217 215 215 216 216 218 224 229 231 233 233 232 231 231 232 235 238 243 247 250 250 252 256 259 263 266 269 271 272 271 271 271 271 271 271 271 271 273 274
252 252 251 250 250 250 250 249 249 249 249 247 247 247 246 243 241 239 238 238 238 240 240 241 241 244 247 250 253 255 256 256 256 256 256 252 248 241 231 226 224 219 215 214 213 215 218 221 223 220 217 215 214 215 216 219 227 231 232 233 234 233 232 233 234 238 244 248 251 251 253 256 260 262 263 264 267 269 270 270 270 270 271 273 275 276 278 280
251 252 251 249 249 249 249 248 248 248 247 246 245 245 245 241 238 237 235 234 234 235 237 237 238 241 243 246 248 250 253 253 253 253 252 249 245 238 229 220 221 221 214 215 218 214 210 210 219 224 221 218 214 214 215 216 222 228 231 233 234 233 232 232 234 237 241 245 250 251 252 255 258 259 258 259 262 265 268 270 272 273 274 277 280 282 283 283
249 250 251 249 248 248 249 248 247 246 246 245 244 243 242 240 236 234 232 232 232 233 235 235 236 238 238 241 244 246 248 250 250 249 249 248 243 239 231 217 211 215 208 207 214 218 213 203 203 218 225 225 222 215 211 212 216 222 227 230 231 231 230 230 231 234 236 238 244 249 251 253 256 258 257 257 259 262 266 269 272 274 277 280 283 284 284 285
247 248 250 250 248 247 247 247 246 245 245 244 243 241 240 239 235 233 233 232 230 231 233 233 234 236 235 237 240 243 244 246 246 246 246 245 242 239 235 221 207 206 204 203 204 207 214 206 195 204 219 225 228 220 210 206 208 213 218 221 222 224 226 226 226 227 229 230 235 245 252 253 254 257 259 260 260 261 264 267 270 273 275 277 279 280 281 282
246 246 248 249 248 246 246 246 246 245 244 243 241 239 239 238 236 234 233 231 228 228 229 230 232 234 234 235 237 239 242 243 243 243 242 241 240 237 233 225 215 209 206 210 210 203 207 208 196 197 209 217 226 225 214 205 205 209 214 218 220 220 221 222 221 222 225 227 232 242 253 256 255 254 257 262 264 264 264 266 268 270 271 273 274 275 276 278
244 245 246 248 248 245 244 245 245 244 243 241 240 238 237 236 235 233 231 228 225 225 226 227 229 232 233 233 234 237 239 240 240 240 240 237 236 235 231 225 220 214 209 214 221 214 208 215 211 205 207 209 218 222 214 207 206 207 210 215 217 218 220 222 221 221 224 228 233 241 251 258 260 258 258 261 265 266 265 266 268 268 269 270 272 273 274 275
243 243 245 247 248 246 243 243 244 243 242 240 238 236 234 232 231 231 230 227 224 225 225 224 226 229 231 231 232 234 236 237 238 237 238 235 233 233 231 227 223 217 212 213 219 217 210 211 215 215 212 209 210 212 210 207 208 210 212 213 215 218 221 226 227 227 227 230 234 239 245 253 261 264 264 264 266 268 267 267 269 270 271 272 273 274 275 275
242 242 243 245 247 245 243 241 242 242 241 239 236 234 233 231 229 229 228 225 224 224 223 222 224 227 228 229 230 231 234 236 236 235 235 234 231 232 230 227 225 220 215 213 214 215 213 210 207 208 213 213 211 212 212 211 212 214 217 219 221 224 226 229 232 233 234 234 235 237 240 248 259 266 269 268 268 270 270 269 270 272 274 274 275 276 277 278
240 240 241 243 245 245 242 240 240 240 240 238 236 234 233 232 231 231 229 225 222 221 221 221 223 225 226 227 228 229 231 233 234 233 233 233 231 231 230 228 227 224 221 220 218 217 217 216 212 208 212 215 216 217 218 217 217 217 219 223 226 228 229 231 232 233 235 239 241 243 241 241 248 257 265 269 270 273 276 275 275 275 276 277 278 280 281 281
239 239 240 241 243 243 241 239 238 238 238 237 235 232 231 230 229 231 230 226 222 220 220 221 221 222 224 225 227 227 229 231 233 234 234 233 231 231 231 230 228 225 224 223 222 222 221 219 217 215 216 218 220 221 222 222 222 220 221 224 226 228 230 233 234 234 234 236 244 251 251 247 246 251 260 267 271 275 280 281 280 280 279 279 279 280 281 281
239 238 239 239 240 241 240 237 236 237 236 236 234 232 230 229 227 227 228 228 224 219 220 221 220 220 222 224 225 226 229 231 233 234 234 233 231 230 230 231 230 228 227 226 224 224 223 221 220 221 222 223 224 224 224 225 224 225 228 230 232 234 236 238 239 241 240 239 243 253 260 259 256 254 259 266 269 271 276 279 281 282 281 280 279 279 279 281
238 238 238 238 238 239 238 236 234 235 235 234 234 232 230 229 228 226 225 225 223 219 220 221 218 218 221 223 224 224 228 231 231 231 233 232 231 228 229 231 231 230 231 231 229 227 225 223 223 223 225 229 230 229 229 228 230 234 237 237 238 239 241 243 244 245 247 248 247 251 262 267 265 261 259 263 268 269 270 274 276 279 280 281 282 281 281 281
237 237 237 236 236 236 236 234 232 233 233 232 231 230 228 227 227 227 225 224 222 220 221 220 217 218 221 222 222 224 227 229 229 230 232 233 233 230 230 231 230 231 233 234 234 232 230 229 229 228 230 233 233 233 235 235 236 239 240 240 241 244 245 247 248 249 249 251 250 250 259 269 273 271 267 267 269 270 269 270 271 273 276 280 283 283 282 281
236 235 235 234 234 233 233 232 231 230 231 230 229 228 227 226 225 225 225 225 223 221 220 219 217 218 221 221 221 224 226 228 229 230 232 234 235 234 233 232 230 229 232 235 236 236 235 234 233 232 234 236 235 235 237 237 236 240 242 243 245 247 249 250 252 253 252 253 254 252 252 261 271 275 275 275 274 273 271 270 270 270 272 275 278 278 278 278
234 233 233 232 232 231 231 230 228 228 228 228 227 227 226 226 224 223 223 222 222 220 219 217 216 218 220 220 221 223 225 227 229 230 231 233 235 236 236 235 233 232 234 237 238 237 236 236 235 234 236 239 239 237 238 240 240 241 244 245 246 249 252 253 254 256 257 258 257 254 252 257 265 271 274 275 275 275 272 270 268 268 268 270 273 273 273 274
232 232 231 230 230 230 229 228 226 225 226 226 225 226 225 224 224 223 222 221 220 220 219 217 217 218 219 220 221 223 224 226 229 230 230 232 234 236 238 237 236 235 235 237 239 238 238 237 236 237 239 241 242 240 240 241 242 242 244 246 247 250 253 253 255 258 261 261 258 255 256 260 265 269 269 270 273 275 275 273 270 266 265 268 270 270 270 271
231 230 229 228 228 228 227 226 225 223 224 224 223 223 223 223 224 224 223 222 221 221 220 219 218 218 220 220 220 222 223 225 229 231 229 231 233 235 237 238 237 237 237 238 239 239 239 239 238 239 241 243 245 245 244 244 244 244 245 248 249 251 254 254 254 257 259 261 260 258 261 265 267 268 268 269 273 276 278 280 279 274 270 270 269 267 267 268
229 228 227 226 226 226 225 224 223 221 221 221 221 221 221 223 224 224 224 224 223 223 223 223 221 220 222 222 221 222 223 224 228 230 229 231 234 236 238 238 239 240 240 240 240 239 241 242 242 243 243 245 247 249 249 248 248 246 245 248 250 251 253 255 255 256 259 263 265 264 264 266 267 268 269 271 273 275 278 280 281 281 279 277 273 268 266 265
228 227 225 224 224 224 224 223 221 219 220 219 219 219 221 223 224 225 225 223 221 221 222 223 222 221 223 224 223 224 223 224 228 231 230 231 234 236 238 239 239 240 240 240 241 241 243 245 245 245 245 246 247 249 251 249 248 246 244 245 248 250 253 257 260 261 263 266 268 268 266 264 263 264 266 269 271 273 276 277 278 281 283 282 279 275 273 270
229 226 224 223 222 222 222 221 219 218 218 217 218 219 221 224 225 226 224 222 220 218 219 220 220 219 221 224 225 225 224 225 229 231 231 232 234 235 237 238 239 239 240 240 241 241 242 245 246 246 246 246 246 247 248 248 248 248 247 246 249 251 254 259 263 265 265 265 265 264 262 260 261 263 265 266 267 269 270 273 276 278 279 279 280 280 280 279
230 226 223 221 220 221 221 220 218 217 216 217 218 219 221 223 224 224 224 222 219 217 218 219 220 219 219 221 224 226 225 225 228 231 231 232 234 235 236 237 238 239 240 241 242 241 241 245 248 249 249 248 248 249 249 251 253 254 253 252 254 256 258 261 262 262 260 259 259 259 260 263 266 266 265 263 263 266 269 271 273 274 274 276 278 280 281 281
231 227 223 220 219 219 219 218 217 216 216 217 218 219 221 223 224 225 224 223 220 218 218 219 220 220 219 218 220 224 225 224 227 230 231 232 234 235 236 237 238 240 240 241 242 242 242 244 246 248 249 249 249 250 250 251 253 254 255 254 255 258 259 256 255 254 253 256 260 264 265 265 264 263 262 264 267 269 270 270 271 272 273 274 275 277 280 280
231 227 224 220 218 218 218 217 217 216 215 216 218 219 221 222 224 224 224 222 220 219 218 218 220 221 221 220 220 224 225 223 225 229 230 231 233 235 237 237 239 240 241 242 243 244 242 243 244 245 247 248 249 251 253 253 253 254 256 256 254 254 254 252 252 255 259 263 266 266 263 259 259 262 266 269 270 269 269 269 270 272 273 274 275 279 283 282
232 227 224 221 219 218 218 217 217 216 216 216 217 219 220 221 223 223 221 219 217 217 216 216 219 221 221 220 220 224 229 227 226 229 230 231 233 234 235 237 237 239 240 240 241 242 241 242 243 244 245 247 248 250 251 252 253 254 254 253 251 250 251 253 257 260 263 265 266 266 264 263 263 265 268 267 266 267 268 269 271 273 276 278 282 286 287 284
234 228 223 222 221 219 219 218 218 217 217 217 218 219 220 221 221 221 221 219 218 218 217 217 219 221 221 220 216 218 224 227 228 230 232 232 234 234 235 236 236 237 238 238 239 242 244 244 243 242 243 246 247 246 248 250 251 253 253 253 253 252 252 255 258 260 261 263 265 267 268 268 267 267 267 267 267 268 267 268 270 272 275 279 282 283 281 280
235 228 223 221 221 219 218 217 217 217 217 217 219 220 220 220 220 220 221 220 220 220 218 218 220 222 224 223 219 217 220 222 224 228 231 233 234 235 235 235 236 237 239 241 242 243 244 245 243 241 241 244 246 246 246 249 251 253 254 255 256 256 254 255 258 261 263 265 266 267 267 268 269 267 267 267 265 263 261 262 265 267 271 275 277 277 276 278
235 228 222 220 220 219 218 218 217 216 216 216 217 217 218 219 220 221 221 220 220 218 217 217 218 220 224 226 224 221 221 223 223 226 229 232 235 236 236 235 236 237 239 241 243 243 242 243 244 243 242 243 246 246 245 247 250 253 254 255 257 259 259 258 260 263 266 267 266 266 267 268 266 263 261 262 261 259 259 260 262 266 269 272 272 273 276 280
235 229 222 221 222 221 220 219 218 217 217 216 216 216 216 216 217 219 221 222 220 217 218 219 218 219 222 225 227 225 224 225 225 226 228 230 234 235 235 235 235 236 237 237 240 243 244 243 244 245 245 246 249 250 247 246 249 254 256 257 259 263 265 265 263 262 263 265 266 268 271 271 268 264 261 258 257 256 257 260 263 265 268 269 271 273 276 279
235 228 221 219 219 219 218 218 218 218 218 218 218 219 219 217 216 215 216 219 220 218 219 221 221 221 221 222 225 225 225 226 226 228 228 228 232 235 233 232 232 231 232 233 236 242 245 245 245 246 248 250 252 253 252 249 250 253 257 259 260 263 265 265 263 262 263 267 270 271 272 273 274 273 269 265 262 261 262 265 266 266 267 269 272 276 279 281
238 230 225 222 221 220 219 218 217 217 216 216 216 217 217 217 216 215 213 214 214 215 218 219 219 222 223 222 223 223 224 225 227 230 231 230 232 235 235 234 232 230 230 231 234 240 244 246 247 248 250 251 253 253 253 252 251 251 255 259 262 264 264 265 266 266 267 269 270 269 271 276 279 278 275 271 270 270 270 271 271 271 271 273 278 282 285 286
248 238 232 228 226 225 225 224 222 219 218 216 215 215 213 212 211 213 215 215 213 212 217 219 218 218 221 222 224 225 225 225 225 228 231 231 233 235 235 235 235 233 233 233 234 240 246 248 249 249 250 252 253 253 253 252 251 250 253 258 263 265 266 267 268 269 269 268 268 270 275 281 282 281 279 277 277 277 276 275 274 274 276 280 285 286 286 286
256 245 235 229 226 224 225 226 224 221 220 219 218 217 216 213 211 211 213 216 215 214 216 220 219 219 220 220 221 224 225 226 226 227 229 230 232 234 235 236 236 236 236 235 234 238 244 248 249 250 250 251 251 252 251 251 251 251 253 255 258 262 265 266 267 270 273 272 270 272 276 277 277 278 279 281 282 282 280 277 274 273 277 282 283 282 282 284
259 250 239 230 225 222 222 223 222 221 220 219 218 217 217 217 217 216 216 215 215 216 218 221 222 222 223 222 222 223 224 225 227 228 230 231 232 233 235 236 237 236 236 238 239 239 242 245 248 249 249 250 251 251 251 251 253 254 254 253 256 261 264 265 265 267 271 273 275 276 276 273 272 273 276 278 279 278 277 275 275 278 282 282 279 278 279 281
260 254 244 234 228 224 223 224 224 222 221 219 219 218 217 217 218 220 221 220 219 218 220 224 225 225 226 227 227 227 226 226 227 228 230 232 233 233 233 235 236 236 236 239 241 241 241 242 244 246 248 250 251 251 252 253 254 255 254 254 256 259 262 264 265 265 267 272 276 278 277 276 276 276 277 277 277 276 275 275 278 282 282 280 279 280 282 283
262 255 248 239 232 228 225 225 225 224 223 221 219 218 218 217 216 216 218 221 222 221 223 226 228 228 229 230 231 231 231 232 233 233 234 234 234 235 235 236 237 237 237 240 241 241 242 242 243 244 246 248 250 252 253 254 255 255 256 257 258 258 260 262 264 265 266 269 272 275 276 277 278 279 280 280 280 279 279 280 284 285 284 284 287 289 290 290
Height
10977 10978 10979 10980 10981 10982 10983 10984 10985 10985 10985 10986 10987 10987 10988 10988 10988 10988 10988 10988 10987 10986 10986 10985 10984 10983 10983 10982 10981 10980 10978 10976 10975 10973 10971 10969 10966 10964 10961 10960 10958 10958 10957 10958 10959 10960 10961 10963 10966 10969 10971 10974 10977 10980 10982 10984 10985 10987 10989 10991 10992 10994 10995 10996 10997 10998 10999 11001 11002 11003 11004 11005 11005 11005 11005 11005 11005 11005 11004 11004 11004 11004 11005 11004 11004 11003 11003 11002
10972 10974 10975 10976 10977 10978 10979 10980 10981 10982 10983 10983 10984 10984 10985 10985 10986 10986 10986 10986 10985 10984 10984 10983 10982 10982 10981 10980 10979 10978 10976 10974 10973 10971 10969 10967 10965 10962 10960 10958 10957 10957 10957 10958 10959 10960 10962 10964 10965 10968 10971 10974 10976 10978 10980 10981 10983 10985 10987 10989 10990 10993 10994 10994 10995 10996 10998 10999 11000 11001 11002 11003 11004 11004 11004 11004 11004 11004 11003 11003 11003 11004 11004 11003 11003 11003 11002 11001
10968 10969 10970 10972 10973 10974 10975 10977 10978 10979 10980 10980 10981 10981 10982 10983 10983 10984 10983 10983 10983 10982 10982 10981 10980 10980 10979 10979 10978 10977 10975 10973 10972 10970 10968 10966 10964 10962 10960 10958 10958 10958 10958 10959 10960 10961 10962 10964 10965 10967 10970 10973 10975 10977 10978 10980 10981 10982 10985 10987 10989 10991 10992 10992 10993 10994 10996 10997 10999 10999 11000 11001 11002 11003 11003 11004 11004 11003 11003 11003 11003 11003 11003 11002 11002 11002 11001 11000
10963 10964 10966 10967 10969 10970 10971 10973 10974 10975 10976 10977 10978 10978 10979 10980 10981 10981 10981 10981 10980 10980 10980 10979 10978 10978 10978 10977 10976 10975 10974 10972 10970 10969 10967 10965 10963 10962 10960 10959 10959 10959 10959 10960 10960 10961 10963 10964 10966 10967 10969 10972 10975 10976 10977 10979 10980 10981 10983 10985 10988 10990 10990 10990 10991 10992 10994 10996 10998 10998 10998 10999 11000 11001 11002 11002 11002 11002 11002 11002 11002 11001 11001 11001 11001 11001 11001 11000
10958 10959 10961 10962 10964 10965 10967 10968 10970 10971 10973 10974 10975 10975 10976 10977 10978 10978 10979 10978 10978 10978 10977 10977 10976 10976 10976 10975 10975 10974 10972 10970 10969 10968 10966 10965 10963 10962 10960 10959 10959 10959 10960 10960 10961 10962 10963 10964 10966 10968 10969 10971 10974 10976 10977 10978 10979 10980 10982 10984 10986 10988 10988 10989 10990 10991 10993 10995 10997 10997 10998 10998 10999 11000 11001 11001 11001 11001 11001 11000 11000 11000 10999 11000 11000 11000 11000 10999
10954 10955 10956 10958 10959 10960 10962 10964 10966 10967 10969 10970 10971 10972 10973 10974 10975 10976 10976 10976 10976 10975 10975 10975 10974 10974 10974 10974 10973 10973 10971 10969 10968 10967 10965 10964 10963 10962 10961 10960 10960 10960 10961 10961 10962 10962 10964 10965 10965 10967 10970 10971 10973 10976 10977 10978 10979 10980 10981 10983 10984 10985 10987 10988 10988 10990 10991 10993 10995 10996 10997 10997 10998 10999 10999 10999 10999 10999 10999 10999 10998 10998 10998 10998 10998 10998 10998 10998
10949 10950 10952 10953 10954 10956 10957 10959 10961 10963 10964 10966 10967 10969 10970 10971 10972 10973 10973 10974 10973 10973 10973 10973 10972 10972 10972 10972 10972 10971 10970 10968 10967 10966 10965 10964 10963 10962 10961 10960 10960 10961 10961 10962 10963 10964 10965 10965 10966 10966 10968 10970 10972 10974 10976 10977 10978 10979 10981 10982 10983 10984 10986 10987 10987 10989 10990 10992 10994 10995 10996 10996 10996 10997 10996 10996 10997 10998 10997 10997 10996 10996 10996 10996 10996 10996 10996 10996
10945 10946 10947 10948 10950 10951 10953 10954 10956 10958 10960 10962 10963 10965 10967 10968 10969 10970 10971 10971 10971 10971 10971 10970 10970 10970 10970 10970 10970 10970 10969 10967 10965 10965 10964 10963 10963 10962 10961 10961 10961 10961 10962 10963 10963 10964 10965 10966 10967 10966 10967 10969 10970 10972 10974 10976 10978 10979 10980 10981 10982 10983 10985 10986 10987 10988 10990 10991 10992 10993 10993 10994 10994 10994 10994 10994 10995 10996 10995 10994 10994 10994 10994 10993 10993 10993 10994 10994
10941 10942 10943 10944 10945 10947 10949 10950 10951 10953 10955 10957 10959 10961 10963 10965 10966 10967 10968 10968 10968 10968 10969 10968 10968 10968 10968 10969 10968 10968 10967 10965 10964 10964 10963 10962 10962 10961 10961 10961 10961 10961 10962 10963 10963 10964 10964 10965 10966 10967 10968 10969 10970 10971 10973 10975 10977 10979 10980 10981 10982 10983 10984 10986 10987 10988 10989 10990 10990 10991 10991 10991 10992 10992 10993 10993 10993 10993 10992 10992 10992 10992 10991 10991 10991 10991 10991 10991
10936 10937 10938 10939 10941 10942 10944 10946 10946 10948 10950 10952 10955 10957 10959 10961 10962 10964 10965 10966 10966 10966 10966 10966 10966 10966 10966 10967 10967 10967 10966 10964 10963 10962 10962 10961 10961 10961 10961 10961 10960 10961 10961 10963 10963 10964 10964 10964 10964 10965 10966 10968 10969 10970 10972 10974 10976 10978 10979 10980 10981 10982 10983 10985 10986 10987 10988 10988 10988 10988 10989 10990 10990 10991 10991 10991 10991 10990 10990 10990 10990 10990 10989 10989 10989 10989 10989 10989
10931 10932 10934 10935 10936 10938 10940 10941 10942 10943 10945 10947 10950 10952 10955 10957 10959 10960 10962 10963 10963 10963 10964 10964 10964 10964 10964 10965 10965 10965 10965 10964 10962 10961 10961 10961 10960 10960 10960 10960 10960 10960 10961 10962 10963 10963 10964 10963 10964 10964 10965 10967 10969 10970 10971 10973 10975 10977 10978 10979 10980 10982 10983 10984 10985 10986 10986 10986 10985 10985 10987 10989 10990 10990 10989 10989 10988 10988 10988 10988 10988 10988 10987 10987 10987 10987 10987 10986
10925 10927 10929 10930 10932 10933 10935 10937 10938 10939 10941 10943 10945 10948 10950 10953 10955 10957 10958 10959 10960 10961 10961 10962 10962 10962 10962 10963 10963 10964 10963 10963 10961 10960 10960 10960 10960 10960 10960 10960 10960 10960 10961 10961 10962 10963 10963 10963 10964 10965 10966 10967 10969 10970 10971 10973 10974 10976 10977 10978 10979 10981 10982 10983 10984 10985 10984 10984 10984 10984 10986 10987 10988 10988 10987 10986 10986 10986 10986 10986 10986 10986 10985 10984 10985 10985 10984 10984
10920 10922 10924 10925 10927 10928 10930 10932 10934 10935 10937 10939 10941 10943 10946 10948 10951 10953 10955 10956 10957 10958 10959 10959 10960 10960 10960 10961 10961 10962 10962 10961 10961 10959 10958 10959 10959 10959 10959 10959 10959 10960 10960 10961 10961 10962 10962 10963 10964 10965 10965 10967 10968 10969 10971 10972 10974 10975 10976 10977 10978 10979 10981 10982 10983 10983 10982 10982 10982 10983 10984 10985 10986 10986 10985 10984 10984 10984 10984 10983 10984 10984 10983 10982 10982 10982 10982 10981
10914 10916 10918 10920 10922 10923 10925 10927 10929 10931 10933 10935 10937 10939 10941 10944 10946 10949 10951 10953 10954 10955 10956 10957 10957 10958 10958 10959 10959 10960 10960 10960 10959 10959 10958 10957 10958 10958 10958 10958 10958 10959 10960 10960 10960 10961 10962 10962 10963 10964 10964 10965 10967 10968 10970 10971 10973 10974 10975 10976 10977 10978 10979 10980 10981 10981 10980 10979 10981 10982 10983 10983 10984 10984 10983 10982 10981 10982 10981 10981 10981 10981 10981 10980 10980 10980 10979 10979
10908 10910 10912 10914 10916 10918 10920 10922 10924 10927 10929 10930 10932 10934 10937 10940 10942 10945 10948 10950 10951 10952 10953 10954 10955 10955 10956 10956 10957 10958 10958 10958 10958 10958 10957 10956 10956 10957 10957 10957 10957 10958 10959 10959 10960 10960 10960 10961 10962 10963 10963 10964 10965 10967 10968 10970 10971 10972 10973 10974 10975 10976 10978 10979 10979 10979 10978 10978 10979 10980 10981 10982 10982 10982 10981 10980 10979 10979 10979 10979 10979 10978 10978 10977 10977 10977 10977 10976
10903 10905 10907 10909 10911 10913 10915 10918 10920 10922 10924 10926 10928 10930 10933 10935 10938 10941 10944 10946 10947 10948 10950 10951 10952 10953 10953 10954 10955 10956 10956 10956 10956 10956 10956 10956 10955 10955 10955 10956 10956 10957 10957 10958 10958 10959 10959 10960 10961 10962 10962 10963 10964 10965 10967 10968 10969 10969 10970 10972 10973 10975 10976 10977 10978 10978 10977 10976 10977 10978 10979 10980 10981 10980 10979 10978 10977 10977 10976 10976 10976 10976 10975 10974 10974 10974 10975 10974
10897 10899 10901 10903 10905 10907 10910 10912 10915 10917 10919 10922 10924 10926 10928 10931 10934 10937 10940 10942 10944 10945 10946 10948 10949 10950 10951 10952 10953 10953 10954 10954 10955 10955 10955 10955 10955 10954 10954 10954 10955 10955 10956 10956 10957 10957 10958 10959 10960 10961 10961 10962 10962 10963 10964 10966 10967 10967 10968 10969 10971 10972 10974 10975 10977 10977 10976 10975 10975 10976 10977 10978 10979 10979 10977 10976 10974 10973 10973 10973 10974 10974 10973 10972 10973 10973 10973 10972
10891 10893 10895 10897 10900 10902 10904 10907 10909 10912 10914 10917 10919 10922 10924 10927 10930 10932 10935 10938 10939 10941 10942 10944 10946 10947 10948 10950 10950 10951 10952 10952 10953 10953 10953 10954 10954 10953 10953 10953 10953 10954 10954 10955 10956 10956 10957 10958 10959 10959 10959 10960 10960 10961 10962 10963 10965 10966 10966 10967 10969 10970 10972 10973 10975 10976 10975 10973 10973 10974 10975 10976 10977 10977 10976 10974 10972 10971 10971 10971 10971 10971 10971 10971 10971 10971 10971 10970
10885 10887 10889 10892 10894 10896 10899 10901 10904 10907 10909 10912 10915 10917 10920 10923 10925 10928 10930 10932 10934 10936 10938 10941 10943 10944 10946 10947 10948 10949 10949 10950 10951 10951 10952 10952 10952 10952 10952 10952 10952 10953 10953 10954 10954 10955 10956 10957 10958 10958 10958 10959 10959 10959 10960 10961 10962 10964 10965 10966 10967 10968 10969 10971 10973 10974 10973 10972 10971 10971 10972 10973 10974 10974 10973 10972 10971 10971 10970 10970 10969 10969 10969 10969 10969 10968 10968 10968
10879 10881 10883 10886 10888 10891 10893 10896 10898 10901 10904 10907 10910 10913 10916 10918 10920 10923 10924 10926 10930 10933 10935 10938 10939 10940 10943 10944 10945 10946 10947 10948 10949 10949 10950 10950 10951 10951 10951 10951 10951 10952 10952 10952 10953 10954 10954 10954 10955 10957 10958 10958 10958 10957 10958 10959 10961 10962 10963 10964 10965 10966 10967 10968 10970 10972 10972 10971 10969 10968 10969 10970 10970 10971 10970 10970 10970 10971 10970 10969 10968 10967 10967 10966 10965 10965 10964 10964
10873 10875 10877 10880 10883 10886 10888 10890 10893 10896 10899 10902 10905 10908 10911 10913 10916 10918 10919 10923 10928 10930 10932 10935 10936 10937 10939 10941 10942 10943 10944 10946 10946 10947 10948 10948 10949 10949 10950 10950 10950 10950 10950 10951 10951 10952 10953 10953 10953 10955 10956 10957 10958 10957 10957 10958 10959 10960 10961 10962 10962 10963 10965 10966 10968 10969 10970 10970 10969 10967 10965 10966 10968 10968 10968 10968 10968 10969 10969 10968 10967 10966 10966 10965 10964 10962 10962 10961
10867 10869 10871 10874 10877 10880 10882 10885 10887 10890 10894 10897 10900 10904 10906 10909 10912 10914 10916 10920 10924 10926 10928 10931 10932 10934 10937 10938 10939 10941 10942 10943 10944 10945 10946 10947 10947 10948 10948 10949 10949 10949 10949 10950 10950 10950 10951 10952 10952 10953 10954 10956 10957 10957 10957 10957 10958 10959 10960 10960 10961 10962 10963 10965 10966 10968 10968 10968 10968 10966 10964 10963 10965 10966 10967 10966 10966 10966 10967 10966 10965 10965 10965 10964 10962 10961 10960 10960
10860 10863 10866 10868 10871 10874 10877 10879 10882 10885 10888 10892 10895 10899 10902 10906 10908 10910 10912 10916 10919 10920 10923 10926 10929 10931 10933 10935 10937 10938 10939 10940 10941 10943 10944 10945 10946 10946 10947 10947 10947 10948 10948 10949 10949 10949 10950 10951 10952 10952 10953 10955 10956 10957 10957 10957 10957 10958 10958 10959 10960 10960 10961 10962 10964 10965 10966 10967 10967 10966 10964 10962 10961 10963 10965 10965 10964 10962 10963 10964 10963 10963 10963 10961 10960 10959 10958 10958
10854 10857 10859 10862 10865 10868 10871 10874 10877 10880 10883 10886 10890 10893 10896 10900 10903 10904 10907 10911 10914 10915 10919 10923 10925 10927 10929 10932 10934 10935 10936 10937 10939 10940 10941 10942 10944 10944 10945 10946 10946 10947 10948 10948 10948 10949 10949 10949 10951 10952 10953 10953 10954 10955 10956 10956 10957 10956 10956 10957 10958 10958 10959 10960 10961 10962 10964 10965 10965 10965 10964 10962 10960 10960 10962 10962 10961 10959 10960 10961 10960 10959 10959 10957 10956 10955 10954 10954
10847 10850 10853 10856 10859 10862 10865 10869 10871 10874 10877 10880 10884 10888 10891 10895 10897 10898 10902 10906 10909 10911 10916 10919 10920 10922 10926 10928 10930 10931 10933 10934 10936 10937 10938 10940 10941 10942 10943 10944 10945 10946 10946 10946 10947 10947 10948 10948 10949 10951 10952 10952 10953 10954 10954 10955 10955 10955 10955 10955 10956 10956 10957 10958 10959 10960 10961 10962 10963 10963 10963 10962 10960 10959 10959 10958 10958 10956 10956 10957 10957 10955 10954 10953 10953 10952 10951 10950
10840 10843 10847 10850 10853 10856 10859 10863 10865 10868 10871 10875 10879 10884 10887 10891 10893 10895 10897 10900 10903 10907 10910 10912 10915 10919 10922 10924 10926 10928 10930 10931 10932 10934 10936 10938 10939 10940 10941 10942 10943 10944 10944 10945 10945 10946 10947 10948 10949 10950 10951 10951 10952 10952 10952 10952 10953 10953 10954 10954 10954 10955 10955 10956 10957 10958 10959 10959 10960 10960 10961 10962 10961 10959 10957 10955 10955 10954 10952 10952 10952 10952 10950 10950 10949 10949 10947 10946
10833 10837 10840 10843 10846 10850 10853 10857 10860 10862 10866 10869 10874 10878 10881 10886 10889 10891 10893 10896 10899 10902 10904 10907 10911 10915 10918 10920 10922 10924 10925 10926 10928 10931 10933 10935 10937 10937 10938 10940 10941 10941 10942 10943 10944 10944 10945 10946 10948 10949 10949 10950 10950 10950 10950 10950 10951 10951 10952 10952 10952 10953 10953 10954 10954 10955 10956 10957 10957 10957 10957 10958 10959 10959 10957 10954 10953 10952 10950 10947 10947 10947 10946 10946 10946 10945 10944 10942
10826 10830 10834 10837 10840 10843 10847 10851 10854 10857 10860 10864 10869 10873 10877 10881 10883 10885 10888 10891 10895 10898 10899 10902 10907 10911 10913 10915 10918 10920 10921 10922 10926 10929 10930 10932 10934 10935 10936 10937 10938 10939 10939 10940 10941 10942 10943 10944 10946 10947 10947 10947 10947 10947 10947 10947 10948 10949 10950 10951 10951 10951 10952 10952 10952 10952 10953 10954 10955 10955 10954 10954 10956 10957 10956 10953 10952 10951 10949 10946 10944 10943 10942 10942 10941 10941 10941 10939
10820 10823 10827 10831 10834 10837 10841 10845 10849 10852 10855 10860 10865 10870 10873 10875 10878 10880 10883 10885 10889 10891 10893 10897 10903 10906 10907 10911 10914 10916 10916 10919 10923 10925 10926 10928 10930 10932 10933 10934 10935 10936 10937 10937 10938 10939 10940 10942 10943 10944 10944 10944 10944 10945 10945 10946 10948 10948 10948 10949 10949 10950 10950 10950 10950 10950 10951 10951 10953 10954 10953 10951 10951 10952 10953 10953 10950 10950 10949 10946 10943 10942 10939 10938 10937 10936 10937 10936
10813 10817 10821 10824 10828 10831 10835 10839 10843 10847 10851 10856 10860 10863 10866 10869 10873 10876 10877 10878 10881 10885 10888 10893 10898 10900 10902 10906 10909 10910 10912 10916 10918 10920 10922 10924 10926 10929 10930 10931 10933 10934 10934 10934 10935 10936 10938 10940 10940 10942 10942 10941 10941 10943 10944 10945 10947 10946 10946 10947 10947 10947 10947 10947 10947 10948 10948 10948 10949 10951 10952 10949 10948 10948 10949 10950 10949 10948 10948 10946 10943 10942 10939 10936 10934 10932 10932 10933
10807 10810 10814 10818 10822 10825 10830 10834 10838 10842 10846 10850 10854 10857 10860 10864 10868 10870 10871 10873 10877 10881 10884 10888 10892 10894 10896 10900 10903 10906 10909 10912 10914 10916 10918 10920 10922 10925 10926 10927 10930 10931 10931 10931 10932 10934 10936 10937 10938 10940 10939 10937 10939 10941 10942 10943 10943 10943 10944 10945 10945 10945 10945 10945 10945 10945 10945 10945 10946 10948 10949 10948 10946 10944 10944 10946 10946 10945 10946 10945 10943 10942 10939 10936 10933 10929 10928 10929
10801 10804 10808 10812 10816 10820 10824 10828 10832 10837 10841 10845 10849 10852 10855 10860 10862 10862 10863 10867 10870 10872 10875 10880 10885 10886 10890 10895 10899 10901 10905 10907 10910 10912 10914 10917 10919 10920 10921 10923 10926 10928 10929 10929 10930 10931 10932 10933 10935 10936 10936 10935 10937 10939 10940 10940 10940 10941 10942 10942 10943 10943 10943 10943 10942 10941 10942 10942 10942 10944 10946 10947 10945 10943 10942 10942 10942 10941 10941 10941 10941 10940 10938 10935 10932 10928 10927 10927
10795 10799 10802 10807 10811 10814 10819 10822 10827 10832 10836 10840 10843 10846 10851 10854 10853 10853 10855 10859 10861 10864 10869 10875 10878 10881 10885 10890 10894 10896 10900 10903 10904 10907 10911 10914 10914 10915 10917 10920 10922 10924 10925 10926 10926 10928 10929 10930 10932 10933 10933 10933 10934 10936 10937 10937 10937 10939 10939 10939 10940 10941 10940 10939 10939 10939 10939 10938 10937 10940 10944 10945 10943 10941 10940 10939 10939 10938 10937 10936 10937 10937 10935 10933 10930 10928 10926 10926
10790 10793 10797 10801 10805 10809 10814 10817 10821 10826 10831 10834 10838 10841 10845 10845 10843 10845 10848 10851 10856 10861 10867 10870 10874 10877 10880 10884 10889 10892 10896 10899 10899 10902 10907 10909 10909 10911 10913 10915 10917 10919 10922 10922 10922 10924 10925 10926 10929 10930 10930 10931 10931 10933 10934 10934 10935 10936 10937 10937 10938 10937 10935 10935 10936 10937 10935 10933 10932 10938 10942 10942 10940 10938 10936 10936 10936 10935 10933 10931 10931 10931 10930 10929 10927 10925 10925 10925
10785 10789 10792 10797 10800 10804 10808 10812 10816 10821 10825 10828 10832 10836 10836 10834 10835 10839 10843 10850 10857 10862 10865 10869 10874 10877 10878 10881 10885 10887 10891 10894 10894 10896 10902 10904 10905 10907 10909 10911 10913 10916 10917 10917 10918 10920 10922 10923 10926 10927 10927 10928 10929 10930 10930 10930 10932 10933 10934 10935 10934 10933 10932 10932 10933 10933 10933 10930 10930 10935 10940 10938 10937 10935 10933 10933 10932 10931 10929 10928 10927 10925 10925 10924 10922 10921 10922 10923
10781 10784 10788 10792 10795 10799 10803 10806 10811 10816 10819 10823 10827 10827 10826 10827 10831 10836 10842 10849 10853 10856 10861 10866 10870 10874 10875 10878 10881 10883 10887 10889 10889 10892 10898 10900 10901 10903 10904 10907 10909 10911 10911 10912 10914 10918 10920 10920 10922 10922 10923 10925 10926 10927 10926 10925 10926 10927 10930 10931 10929 10929 10929 10929 10930 10931 10930 10929 10928 10931 10935 10934 10934 10933 10931 10930 10928 10927 10927 10925 10923 10921 10920 10918 10916 10915 10916 10919
10778 10781 10784 10787 10790 10794 10798 10802 10806 10810 10814 10817 10818 10819 10820 10824 10829 10834 10839 10842 10846 10851 10856 10858 10862 10868 10870 10873 10875 10878 10882 10886 10886 10888 10893 10894 10896 10898 10899 10902 10904 10905 10906 10908 10911 10914 10916 10916 10917 10918 10920 10922 10923 10922 10920 10921 10923 10924 10926 10927 10926 10926 10928 10928 10927 10927 10926 10924 10924 10927 10929 10929 10929 10930 10929 10928 10926 10925 10924 10923 10921 10919 10916 10913 10911 10910 10911 10914
10774 10777 10779 10782 10786 10789 10793 10797 10801 10805 10808 10810 10811 10813 10816 10820 10825 10828 10832 10836 10842 10847 10851 10854 10858 10861 10863 10867 10870 10872 10878 10882 10882 10883 10887 10889 10891 10892 10894 10897 10898 10899 10902 10905 10907 10910 10913 10913 10914 10915 10916 10918 10919 10917 10917 10919 10921 10921 10921 10923 10924 10924 10926 10925 10922 10921 10920 10917 10917 10921 10925 10926 10926 10926 10925 10924 10922 10923 10922 10921 10918 10915 10912 10911 10909 10908 10908 10911
10770 10773 10775 10778 10782 10785 10788 10792 10795 10799 10801 10803 10806 10809 10812 10816 10820 10824 10828 10834 10840 10845 10848 10851 10851 10852 10855 10859 10863 10866 10871 10876 10877 10878 10881 10884 10884 10886 10889 10892 10893 10895 10898 10901 10903 10906 10910 10911 10910 10911 10912 10914 10914 10912 10914 10917 10918 10917 10917 10920 10922 10922 10921 10918 10914 10913 10913 10912 10913 10918 10923 10923 10921 10920 10919 10919 10920 10920 10920 10917 10914 10911 10910 10909 10907 10906 10907 10908
10767 10769 10772 10775 10777 10780 10783 10786 10790 10793 10795 10798 10801 10805 10809 10814 10817 10821 10826 10831 10836 10840 10843 10844 10844 10847 10852 10857 10861 10863 10865 10869 10872 10872 10875 10878 10879 10881 10884 10887 10889 10891 10894 10897 10899 10902 10905 10906 10906 10907 10909 10909 10908 10909 10912 10914 10914 10914 10914 10916 10918 10917 10913 10909 10908 10910 10911 10910 10910 10914 10917 10918 10917 10916 10916 10917 10917 10916 10915 10913 10909 10906 10905 10904 10903 10904 10905 10904
10763 10766 10768 10770 10772 10775 10778 10782 10785 10787 10790 10793 10797 10801 10805 10809 10813 10817 10820 10824 10827 10829 10832 10837 10841 10845 10850 10854 10858 10860 10861 10866 10868 10868 10870 10873 10874 10876 10879 10881 10884 10887 10890 10893 10895 10896 10899 10901 10902 10904 10905 10904 10904 10906 10908 10909 10910 10910 10910 10910 10911 10909 10907 10906 10907 10909 10910 10907 10905 10906 10910 10913 10915 10915 10914 10914 10914 10912 10911 10908 10904 10901 10899 10898 10899 10899 10899 10897
10760 10762 10765 10767 10770 10773 10775 10778 10780 10783 10787 10791 10795 10799 10802 10806 10809 10811 10814 10818 10821 10824 10830 10837 10840 10842 10843 10845 10848 10851 10853 10859 10863 10864 10866 10868 10869 10871 10874 10876 10879 10882 10885 10888 10890 10892 10894 10895 10897 10900 10900 10899 10899 10901 10903 10904 10906 10905 10904 10905 10905 10903 10903 10904 10905 10906 10905 10902 10901 10902 10904 10907 10910 10912 10911 10910 10910 10909 10907 10904 10900 10897 10894 10894 10895 10895 10893 10891
10757 10759 10762 10764 10766 10768 10770 10773 10776 10780 10784 10788 10792 10795 10799 10802 10804 10806 10810 10815 10819 10824 10832 10836 10837 10837 10836 10837 10841 10844 10846 10851 10856 10859 10861 10862 10863 10865 10868 10872 10875 10878 10881 10885 10888 10889 10889 10889 10891 10894 10895 10894 10894 10897 10900 10900 10901 10901 10901 10901 10898 10896 10899 10902 10903 10902 10900 10898 10898 10898 10900 10903 10905 10907 10907 10907 10907 10906 10904 10901 10898 10895 10893 10893 10893 10891 10888 10886
10754 10755 10758 10759 10761 10763 10766 10769 10772 10776 10779 10782 10785 10789 10793 10797 10799 10802 10807 10811 10816 10823 10827 10828 10829 10829 10829 10832 10837 10842 10844 10847 10851 10853 10854 10856 10857 10859 10863 10868 10872 10876 10880 10882 10883 10882 10883 10884 10885 10888 10890 10889 10889 10892 10896 10897 10896 10896 10895 10895 10893 10891 10895 10899 10901 10900 10896 10893 10893 10894 10896 10899 10900 10902 10904 10904 10903 10901 10900 10898 10895 10893 10892 10890 10889 10886 10884 10883
10751 10752 10754 10756 10758 10760 10763 10766 10768 10771 10773 10776 10779 10783 10786 10790 10794 10799 10805 10809 10814 10819 10820 10820 10822 10823 10825 10829 10833 10838 10841 10842 10845 10846 10847 10850 10851 10852 10858 10864 10869 10874 10876 10877 10877 10876 10877 10879 10880 10882 10884 10885 10885 10888 10892 10894 10893 10891 10890 10890 10889 10888 10891 10894 10896 10895 10891 10888 10889 10890 10892 10893 10895 10896 10898 10898 10897 10896 10896 10895 10893 10891 10888 10885 10883 10882 10881 10881
10748 10748 10750 10751 10752 10755 10758 10761 10763 10766 10770 10774 10778 10781 10784 10788 10791 10796 10801 10805 10809 10812 10813 10815 10818 10819 10822 10825 10828 10832 10835 10836 10838 10838 10840 10844 10845 10846 10853 10859 10864 10869 10870 10871 10872 10871 10871 10873 10875 10878 10880 10881 10882 10883 10886 10890 10890 10887 10885 10885 10886 10886 10887 10888 10888 10887 10886 10886 10886 10886 10888 10889 10890 10890 10890 10891 10891 10891 10892 10891 10888 10886 10883 10881 10879 10878 10877 10876
10745 10745 10746 10747 10749 10752 10754 10756 10758 10762 10766 10769 10773 10776 10780 10784 10788 10791 10793 10795 10799 10804 10805 10807 10811 10814 10817 10819 10821 10823 10826 10829 10833 10833 10835 10840 10842 10843 10849 10854 10858 10862 10864 10867 10868 10865 10865 10868 10871 10874 10876 10877 10878 10879 10882 10884 10884 10883 10882 10880 10881 10881 10882 10883 10883 10882 10883 10883 10881 10882 10885 10886 10886 10885 10884 10884 10885 10885 10886 10884 10881 10879 10877 10876 10876 10875 10872 10868
10744 10744 10745 10747 10750 10752 10753 10755 10757 10760 10762 10764 10766 10768 10772 10776 10781 10785 10787 10789 10793 10797 10798 10801 10805 10807 10808 10811 10815 10818 10821 10824 10826 10827 10830 10835 10838 10840 10845 10849 10853 10857 10860 10863 10864 10861 10861 10864 10867 10869 10871 10873 10874 10874 10876 10877 10877 10878 10879 10878 10877 10876 10877 10878 10877 10876 10878 10878 10877 10880 10883 10884 10882 10879 10878 10879 10879 10879 10878 10876 10873 10870 10870 10872 10872 10870 10866 10862
10742 10741 10743 10744 10746 10748 10750 10752 10754 10756 10758 10761 10763 10766 10770 10772 10774 10777 10780 10784 10789 10792 10793 10795 10798 10800 10802 10805 10808 10812 10815 10817 10819 10822 10826 10830 10833 10836 10841 10846 10849 10852 10854 10856 10858 10859 10858 10860 10862 10865 10866 10868 10868 10868 10869 10870 10872 10875 10876 10875 10873 10872 10872 10873 10873 10872 10872 10871 10873 10877 10880 10880 10878 10876 10874 10874 10874 10873 10871 10868 10866 10866 10868 10869 10868 10864 10861 10858
10738 10739 10740 10741 10742 10744 10745 10747 10749 10752 10754 10757 10760 10764 10767 10770 10774 10777 10778 10780 10784 10787 10789 10790 10793 10797 10799 10801 10803 10805 10808 10810 10814 10818 10822 10825 10829 10833 10839 10843 10846 10847 10848 10850 10853 10855 10855 10856 10858 10860 10862 10862 10862 10863 10864 10866 10868 10871 10871 10870 10870 10869 10868 10868 10869 10869 10867 10866 10868 10872 10873 10873 10873 10872 10871 10870 10869 10867 10864 10862 10861 10864 10866 10865 10862 10859 10858 10856
10736 10736 10737 10738 10739 10741 10742 10744 10746 10748 10751 10754 10757 10761 10764 10768 10773 10776 10778 10779 10782 10785 10787 10788 10791 10795 10796 10798 10800 10802 10805 10808 10811 10814 10816 10820 10825 10830 10836 10839 10839 10840 10843 10846 10848 10849 10850 10852 10855 10856 10857 10857 10857 10858 10860 10862 10864 10864 10864 10865 10867 10866 10865 10864 10864 10865 10865 10864 10863 10864 10865 10866 10866 10866 10866 10864 10862 10859 10857 10856 10858 10861 10861 10858 10856 10855 10854 10852
10733 10733 10734 10736 10737 10738 10740 10741 10743 10746 10749 10751 10753 10756 10760 10763 10766 10768 10772 10776 10780 10784 10786 10788 10790 10793 10793 10795 10796 10799 10804 10807 10809 10811 10814 10817 10823 10828 10831 10833 10833 10836 10839 10841 10841 10842 10844 10847 10850 10852 10852 10852 10852 10854 10856 10858 10859 10858 10859 10861 10862 10861 10860 10860 10860 10861 10862 10861 10859 10858 10858 10859 10860 10859 10859 10857 10855 10852 10850 10851 10853 10854 10852 10850 10849 10849 10848 10846